OK1CMJ-5 Weather Reports


time (UTC)temp
C
wind
direction
speed
KPH
gust
KPH
rain 1hr
cm
rain 24hr
cm
rain mn
cm
humidity
%
barometer
mb
20260509231447 3 225 0.0 3.2 0.00 0.00 0.00 81 1019.5
20260509230547 3 225 0.0 3.2 0.00 0.00 0.00 79 1019.6
20260509224748 3 225 0.0 3.2 0.00 0.00 0.00 78 1019.7
20260509223847 4 225 0.0 1.6 0.00 0.00 0.00 77 1019.8
20260509222947 4 225 0.0 3.2 0.00 0.00 0.00 77 1019.7
20260509222047 4 225 0.0 3.2 0.00 0.00 0.00 76 1019.7
20260509221147 4 314 0.0 1.6 0.00 0.00 0.00 75 1019.7
20260509220247 5 314 0.0 3.2 0.00 0.00 0.00 74 1019.6
20260509215347 5 315 0.0 3.2 0.00 0.00 0.00 74 1019.7
20260509214447 5 315 0.0 3.2 0.00 0.00 0.00 73 1019.6
20260509213547 5 314 0.0 3.2 0.00 0.00 0.00 72 1019.7
20260509212647 5 314 0.0 3.2 0.00 0.00 0.00 71 1019.7
20260509211747 5 314 0.0 3.2 0.00 0.00 0.00 70 1019.8
20260509210848 5 314 0.0 3.2 0.00 0.00 0.00 69 1020.1
20260509205947 5 314 0.0 1.6 0.00 0.00 0.00 68 1019.9
20260509205047 6 335 0.0 3.2 0.00 0.00 0.00 68 1019.9
20260509204147 6 338 0.0 3.2 0.00 0.00 0.00 67 1019.9
20260509203247 6 325 0.0 3.2 0.00 0.00 0.00 66 1019.9
20260509201447 6 314 0.0 3.2 0.00 0.00 0.00 66 1019.7
20260509200547 7 314 0.0 3.2 0.00 0.00 0.00 62 1019.8
20260509195647 7 315 0.0 3.2 0.00 0.00 0.00 61 1019.9
20260509194747 7 314 0.0 3.2 0.00 0.00 0.00 55 1019.7
20260509192047 9 9 0.0 3.2 0.00 0.00 0.00 45 1019.8
20260509191147 10 90 0.0 1.6 0.00 0.00 0.00 44 1019.6
20260509190247 10 90 0.0 3.2 0.00 0.00 0.00 42 1019.4
20260509184447 11 135 0.0 3.2 0.00 0.00 0.00 40 1019.2
20260509183547 11 0 0.0 0.0 0.00 0.00 0.00 38 1019.2
20260509182647 11 135 0.0 3.2 0.00 0.00 0.00 37 1018.9
20260509180848 12 135 0.0 3.2 0.00 0.00 0.00 35 1019.0
20260509175948 13 135 0.0 6.4 0.00 0.00 0.00 34 1018.8
20260509175048 13 255 3.2 6.4 0.00 0.00 0.00 33 1019.0
20260509174147 13 44 1.6 6.4 0.00 0.00 0.00 32 1018.9
20260509173247 14 61 3.2 9.7 0.00 0.00 0.00 31 1018.9
20260509171447 15 26 1.6 11.3 0.00 0.00 0.00 27 1019.0
20260509170547 15 21 1.6 12.9 0.00 0.00 0.00 25 1019.2
20260509165647 16 61 3.2 11.3 0.00 0.00 0.00 23 1019.0
20260509164747 17 111 3.2 12.9 0.00 0.00 0.00 20 1018.9
20260509161147 17 1 3.2 9.7 0.00 0.00 0.00 23 1019.2
20260509160247 16 358 3.2 14.5 0.00 0.00 0.00 23 1019.3
20260509154447 18 64 3.2 12.9 0.00 0.00 0.00 17 1019.3
20260509153547 19 95 6.4 14.5 0.00 0.00 0.00 16 1019.2
20260509152647 19 70 4.8 11.3 0.00 0.00 0.00 15 1019.3
20260509151747 18 97 6.4 11.3 0.00 0.00 0.00 18 1019.1
20260509150847 16 314 1.6 4.8 0.00 0.00 0.00 26 1019.2
20260509145947 16 308 1.6 8.0 0.00 0.00 0.00 26 1019.1
20260509145047 17 28 3.2 6.4 0.00 0.00 0.00 21 1019.1
20260509144147 18 15 4.8 11.3 0.00 0.00 0.00 20 1019.1
20260509143247 18 49 4.8 11.3 0.00 0.00 0.00 20 1019.1
20260509142347 17 74 0.0 8.0 0.00 0.00 0.00 21 1019.4
20260509141447 17 105 0.0 8.0 0.00 0.00 0.00 22 1019.4
20260509140547 18 80 3.2 9.7 0.00 0.00 0.00 20 1019.4
20260509135647 19 80 3.2 9.7 0.00 0.00 0.00 19 1019.5
20260509134747 18 86 1.6 12.9 0.00 0.00 0.00 20 1019.5
20260509133847 18 84 3.2 14.5 0.00 0.00 0.00 22 1019.4
20260509132947 18 65 3.2 16.1 0.00 0.00 0.00 21 1019.6
20260509132047 19 332 8.0 14.5 0.00 0.00 0.00 21 1019.7
20260509131147 18 351 1.6 6.4 0.00 0.00 0.00 20 1019.9
20260509125347 18 318 0.0 6.4 0.00 0.00 0.00 24 1020.1
20260509123547 16 292 1.6 8.0 0.00 0.00 0.00 26 1020.2
20260509122647 16 288 3.2 9.7 0.00 0.00 0.00 28 1020.3
20260509121747 16 36 3.2 8.0 0.00 0.00 0.00 29 1020.2
20260509115947 19 327 6.4 11.3 0.00 0.00 0.00 15 1020.2
20260509115047 21 321 0.0 4.8 0.00 0.00 0.00 18 1020.3
20260509113247 20 310 1.6 6.4 0.00 0.00 0.00 19 1020.3
20260509112347 19 358 0.0 4.8 0.00 0.00 0.00 25 1020.4
20260509111447 18 1 1.6 4.8 0.00 0.00 0.00 28 1020.5
20260509110547 16 1 0.0 4.8 0.00 0.00 0.00 32 1020.5
20260509105647 16 301 0.0 4.8 0.00 0.00 0.00 32 1020.8
20260509104747 16 311 0.0 4.8 0.00 0.00 0.00 31 1020.9
20260509102947 17 328 3.2 6.4 0.00 0.00 0.00 27 1020.9
20260509102047 18 132 3.2 8.0 0.00 0.00 0.00 27 1020.8
20260509094447 16 340 0.0 6.4 0.00 0.00 0.00 37 1021.1
20260509092646 15 3 3.2 6.4 0.00 0.00 0.00 41 1021.1
20260509091747 13 341 3.2 6.4 0.00 0.00 0.00 42 1021.0
20260509090847 13 114 1.6 6.4 0.00 0.00 0.00 44 1021.0
20260509085946 13 23 1.6 6.4 0.00 0.00 0.00 42 1021.1
20260509085046 13 23 3.2 6.4 0.00 0.00 0.00 41 1021.0
20260509084147 15 339 1.6 6.4 0.00 0.00 0.00 39 1021.1
20260509082347 15 346 0.0 6.4 0.00 0.00 0.00 44 1020.9
20260509081446 14 344 1.6 6.4 0.00 0.00 0.00 44 1020.9
20260509080547 13 261 0.0 6.4 0.00 0.00 0.00 45 1021.0
20260509075647 13 151 1.6 6.4 0.00 0.00 0.00 45 1021.0
20260509073846 15 158 1.6 6.4 0.00 0.00 0.00 43 1020.9
20260509072946 15 22 3.2 4.8 0.00 0.00 0.00 45 1021.1
20260509072046 14 326 1.6 6.4 0.00 0.00 0.00 45 1021.1
20260509070247 14 304 3.2 9.7 0.00 0.00 0.00 45 1021.1
20260509065346 14 136 0.0 6.4 0.00 0.00 0.00 45 1021.2
20260509064446 15 198 1.6 6.4 0.00 0.00 0.00 44 1020.9
20260509063546 15 102 0.0 6.4 0.00 0.00 0.00 43 1021.0
20260509062647 15 71 4.8 6.4 0.00 0.00 0.00 43 1021.0
20260509061747 15 338 1.6 4.8 0.00 0.00 0.00 46 1020.8
20260509060846 15 1 0.0 3.2 0.00 0.00 0.00 46 1020.8
20260509055946 15 23 1.6 6.4 0.00 0.00 0.00 51 1020.7
20260509055047 14 78 3.2 6.4 0.00 0.00 0.00 50 1020.7
20260509054146 15 1 1.6 6.4 0.00 0.00 0.00 54 1020.6
20260509053246 15 1 1.6 4.8 0.00 0.00 0.00 59 1020.8
20260509052346 14 1 0.0 3.2 0.00 0.00 0.00 75 1020.7
20260509050546 10 1 1.6 3.2 0.00 0.00 0.00 91 1020.5
20260509045646 9 0 0.0 0.0 0.00 0.00 0.00 91 1020.5
20260509044746 8 0 0.0 0.0 0.00 0.00 0.00 90 1020.5
20260509043846 7 0 0.0 0.0 0.00 0.00 0.00 89 1020.5
20260509042946 7 0 0.0 0.0 0.00 0.00 0.00 89 1020.4
20260509041146 7 0 0.0 0.0 0.00 0.00 0.00 87 1020.4
20260509035346 7 0 0.0 0.0 0.00 0.00 0.00 86 1020.4
20260509034446 6 0 0.0 0.0 0.00 0.00 0.00 86 1020.2
20260509033546 6 1 0.0 1.6 0.00 0.00 0.00 85 1020.4
20260509031746 6 0 0.0 0.0 0.00 0.00 0.00 84 1020.2
20260509025946 7 0 0.0 0.0 0.00 0.00 0.00 83 1020.1
20260509025046 7 0 0.0 0.0 0.00 0.00 0.00 83 1020.2
20260509024146 7 0 0.0 0.0 0.00 0.00 0.00 83 1020.3
20260509022346 7 0 0.0 0.0 0.00 0.00 0.00 82 1020.2
20260509021446 7 0 0.0 0.0 0.00 0.00 0.00 82 1020.3
20260509020546 7 0 0.0 0.0 0.00 0.00 0.00 81 1020.3
20260509014746 7 1 0.0 1.6 0.00 0.00 0.00 81 1020.5
20260509013846 7 1 0.0 3.2 0.00 0.00 0.00 81 1020.3
20260509012946 7 1 0.0 3.2 0.00 0.00 0.00 80 1020.5
20260509012046 7 1 0.0 1.6 0.00 0.00 0.00 80 1020.6
20260509011147 7 1 0.0 1.6 0.00 0.00 0.00 80 1020.5
20260509010246 7 1 0.0 3.2 0.00 0.00 0.00 79 1020.5
20260509005346 8 1 1.6 3.2 0.00 0.00 0.00 79 1020.5
20260509004446 8 1 0.0 3.2 0.00 0.00 0.00 79 1020.6
20260509003546 8 1 0.0 3.2 0.00 0.00 0.00 79 1020.7
20260509002646 7 1 0.0 3.2 0.00 0.00 0.00 79 1020.7
20260509001746 7 1 0.0 3.2 0.00 0.00 0.00 79 1020.6
20260509000846 8 1 0.0 3.2 0.00 0.00 0.00 79 1020.7
20260508235946 8 1 0.0 3.2 0.00 0.00 0.00 79 1020.7
20260508234146 8 1 0.0 1.6 0.00 0.00 0.00 79 1020.6
20260508233246 8 81 0.0 4.8 0.00 0.00 0.00 79 1020.9
20260508232346 8 90 0.0 3.2 0.00 0.00 0.00 79 1020.8